TimeHST,TemperatureF,Dew PointF,Humidity,Sea Level PressureIn,VisibilityMPH,Wind Direction,Wind SpeedMPH,Gust SpeedMPH,PrecipitationIn,Events,Conditions,WindDirDegrees,DateUTC
12:53 AM,75.9,66.0,71,30.04,10.0,ENE,8.1,-,N/A,,Scattered Clouds,60,2012-09-16 10:53:00
1:53 AM,75.9,66.9,74,30.03,10.0,NNE,9.2,-,N/A,,Scattered Clouds,30,2012-09-16 11:53:00
2:53 AM,75.9,66.0,71,30.02,10.0,NE,10.4,-,N/A,,Mostly Cloudy,40,2012-09-16 12:53:00
3:53 AM,75.9,66.9,74,30.02,10.0,ENE,5.8,-,N/A,,Mostly Cloudy,60,2012-09-16 13:53:00
4:53 AM,75.9,66.0,71,30.02,10.0,NNE,3.5,-,N/A,,Mostly Cloudy,20,2012-09-16 14:53:00
5:53 AM,75.9,66.9,74,30.04,10.0,Variable,3.5,-,N/A,,Mostly Cloudy,0,2012-09-16 15:53:00
6:53 AM,77.0,64.9,66,30.05,10.0,East,8.1,-,N/A,,Scattered Clouds,90,2012-09-16 16:53:00
7:53 AM,78.1,66.9,68,30.05,10.0,ENE,5.8,-,N/A,,Partly Cloudy,70,2012-09-16 17:53:00
8:53 AM,82.0,64.9,56,30.05,10.0,ENE,11.5,17.3,N/A,,Partly Cloudy,60,2012-09-16 18:53:00
9:53 AM,84.9,64.9,51,30.05,10.0,ENE,12.7,23.0,N/A,,Partly Cloudy,60,2012-09-16 19:53:00
10:53 AM,86.0,64.9,49,30.04,10.0,NE,13.8,-,N/A,,Partly Cloudy,50,2012-09-16 20:53:00
11:53 AM,87.1,63.0,44,30.03,10.0,NE,11.5,23.0,N/A,,Partly Cloudy,40,2012-09-16 21:53:00
12:53 PM,87.1,63.0,44,30.01,10.0,NE,11.5,26.5,N/A,,Scattered Clouds,50,2012-09-16 22:53:00
1:53 PM,87.1,64.9,48,30.00,10.0,NNE,16.1,26.5,N/A,,Scattered Clouds,30,2012-09-16 23:53:00
2:53 PM,86.0,64.9,49,29.99,10.0,NE,15.0,20.7,N/A,,Scattered Clouds,40,2012-09-17 00:53:00
3:53 PM,84.0,64.0,51,29.99,10.0,NE,18.4,21.9,N/A,,Partly Cloudy,50,2012-09-17 01:53:00
4:53 PM,82.9,64.0,53,29.99,10.0,NE,16.1,24.2,N/A,,Partly Cloudy,50,2012-09-17 02:53:00
5:53 PM,81.0,64.9,58,30.00,10.0,ENE,10.4,-,N/A,,Clear,60,2012-09-17 03:53:00
6:53 PM,78.1,64.9,64,30.02,10.0,ENE,9.2,-,N/A,,Partly Cloudy,60,2012-09-17 04:53:00
7:53 PM,78.1,66.9,68,30.04,10.0,ENE,8.1,-,N/A,,Partly Cloudy,60,2012-09-17 05:53:00
8:53 PM,78.1,66.0,66,30.06,10.0,NE,12.7,-,N/A,,Partly Cloudy,50,2012-09-17 06:53:00
9:53 PM,77.0,64.9,66,30.06,10.0,ENE,9.2,-,N/A,,Partly Cloudy,60,2012-09-17 07:53:00
10:53 PM,77.0,66.0,69,30.06,10.0,ENE,9.2,18.4,N/A,,Scattered Clouds,60,2012-09-17 08:53:00
11:53 PM,75.9,66.9,74,30.05,10.0,East,12.7,-,0.00,Rain,Light Rain,80,2012-09-17 09:53:00